TimeCDT,TemperatureF,Dew PointF,Humidity,Sea Level PressureIn,VisibilityMPH,Wind Direction,Wind SpeedMPH,Gust SpeedMPH,PrecipitationIn,Events,Conditions,WindDirDegrees,DateUTC
12:52 AM,77.0,69.1,76,29.99,10.0,Calm,Calm,-,N/A,,Clear,0,2013-08-27 05:52:00
1:52 AM,75.0,68.0,79,29.98,10.0,Calm,Calm,-,N/A,,Clear,0,2013-08-27 06:52:00
2:52 AM,73.9,69.1,85,29.98,10.0,South,3.5,-,N/A,,Clear,180,2013-08-27 07:52:00
3:52 AM,73.0,69.1,87,29.97,10.0,Calm,Calm,-,N/A,,Clear,0,2013-08-27 08:52:00
4:52 AM,73.0,69.1,87,29.96,10.0,South,3.5,-,N/A,,Clear,170,2013-08-27 09:52:00
5:52 AM,72.0,69.1,91,29.97,10.0,Calm,Calm,-,N/A,,Clear,0,2013-08-27 10:52:00
6:52 AM,71.1,69.1,93,29.98,10.0,South,4.6,-,N/A,,Clear,170,2013-08-27 11:52:00
7:52 AM,75.0,70.0,84,29.99,10.0,SSW,4.6,-,N/A,,Clear,200,2013-08-27 12:52:00
8:52 AM,80.1,71.1,74,29.98,10.0,SW,8.1,-,N/A,,Clear,220,2013-08-27 13:52:00
9:52 AM,82.9,70.0,65,29.97,10.0,WSW,10.4,18.4,N/A,,Clear,240,2013-08-27 14:52:00
10:52 AM,87.1,70.0,57,29.96,10.0,WSW,13.8,18.4,N/A,,Clear,240,2013-08-27 15:52:00
11:52 AM,90.0,71.1,54,29.94,10.0,SW,12.7,-,N/A,,Clear,230,2013-08-27 16:52:00
12:52 PM,91.9,70.0,48,29.91,10.0,SW,13.8,20.7,N/A,,Clear,220,2013-08-27 17:52:00
1:52 PM,93.9,71.1,47,29.89,10.0,SW,13.8,21.9,N/A,,Clear,230,2013-08-27 18:52:00
2:52 PM,95.0,70.0,44,29.88,10.0,SW,13.8,19.6,N/A,,Clear,220,2013-08-27 19:52:00
3:52 PM,96.1,70.0,43,29.86,10.0,SW,15.0,21.9,N/A,,Clear,230,2013-08-27 20:52:00
4:52 PM,96.1,70.0,43,29.86,10.0,SW,10.4,20.7,N/A,,Clear,230,2013-08-27 21:52:00
5:52 PM,95.0,69.1,43,29.86,10.0,SW,8.1,-,N/A,,Clear,220,2013-08-27 22:52:00
6:52 PM,91.9,69.1,47,29.86,10.0,SSW,5.8,-,N/A,,Clear,210,2013-08-27 23:52:00
7:52 PM,88.0,69.1,53,29.86,10.0,SSW,6.9,-,N/A,,Clear,210,2013-08-28 00:52:00
8:52 PM,84.9,66.9,55,29.88,10.0,SSW,6.9,-,N/A,,Clear,210,2013-08-28 01:52:00
9:52 PM,82.0,66.9,60,29.90,10.0,SW,4.6,-,N/A,,Clear,220,2013-08-28 02:52:00
10:52 PM,81.0,66.0,60,29.91,10.0,SSW,3.5,-,N/A,,Clear,210,2013-08-28 03:52:00
11:52 PM,80.1,66.9,64,29.91,10.0,WSW,5.8,-,N/A,,Clear,250,2013-08-28 04:52:00